Tracking 31027 objects as of 19-Jul-2025
HD Live streaming from Space Station
objects crossing your sky now

ATLAS CENTAUR DEB

Track ATLAS CENTAUR DEB now!


NORAD ID: 25253
Int'l Code: 1978-068C
Perigee: 810.0 km
Apogee: 35,640.2 km
Inclination: 21.2 °
Period: 639.8 minutes
Semi major axis: 24596 km
RCS: 0.1092 m2 (medium)
Launch date: June 29, 1978
Source: United States (US)
Launch site: AIR FORCE EASTERN TEST RANGE (AFETR)

Note: This is SATELLITE DEBRIS
Your satellite tracking list
TITAN 3C TRANSTAGE DEB
Track 1 satellite(s)




NASA's NSSDC Master Catalog

Two Line Element Set (TLE):
1 25253U 78068C   25198.36168118  .00000019  00000-0 -18670-2 0  9990
2 25253  21.2135 151.3936 7080426 268.0862 316.7775  2.25062512230400
Source of the keplerian elements: AFSPC